Temp
55 55 55 56 56 53 48 45 43 48 50 40 37 30 27 33 32 35 32 31 28 24 25 22 21 22 27 35 30 22 27 21 17 20 21 23 19 13 12 9 13 18 20 8
54 54 55 55 56 51 47 37 40 49 49 31 32 31 29 31 30 31 29 28 30 29 24 18 24 24 34 34 29 25 28 22 15 19 18 22 15 15 13 14 12 10 13 9
54 54 54 55 55 53 48 39 36 43 40 37 29 25 27 27 35 31 31 30 30 26 24 26 20 23 29 31 30 33 27 21 16 12 13 14 10 12 13 13 9 7 7 10
54 54 54 54 54 52 49 39 36 36 34 36 28 26 25 25 25 31 31 27 27 23 18 21 20 25 26 30 29 25 22 17 19 20 16 15 12 10 9 7 8 6 6 7
54 54 54 54 54 51 44 37 34 30 33 30 29 28 26 25 26 26 25 23 29 27 21 23 18 23 25 23 26 22 19 18 15 12 17 17 8 11 11 8 7 8 9 7
53 53 53 53 54 50 41 38 38 34 35 30 28 32 29 28 30 32 32 30 27 25 29 33 33 33 30 27 22 22 16 15 14 13 13 14 10 6 7 6 6 6 3 7
53 53 53 53 53 52 47 42 39 31 30 31 33 32 31 30 31 27 32 32 27 33 37 36 32 27 22 20 23 24 18 13 15 12 10 5 7 14 12 7 6 8 8 10
53 53 53 53 53 52 46 43 38 32 29 33 34 32 31 32 32 28 28 32 36 36 33 26 22 23 21 22 22 17 14 17 14 10 10 4 7 8 6 5 4 9 7 10
53 53 53 53 53 52 48 45 43 36 30 34 37 32 31 27 26 26 29 35 37 33 28 23 14 15 15 16 18 22 20 15 16 10 8 4 7 9 10 10 5 10 10 10
53 53 53 53 53 52 48 45 45 38 31 36 34 30 30 30 28 26 29 30 29 31 25 19 18 18 19 14 12 13 15 15 12 12 10 8 8 10 11 2 4 9 10 10
53 53 53 53 52 51 48 45 46 40 33 36 35 35 30 29 30 25 30 28 26 26 19 19 21 17 19 13 10 8 10 10 11 4 4 3 11 11 6 7 10 11 12 11
53 52 52 52 51 50 49 42 45 44 35 34 36 36 38 37 37 31 31 29 27 30 23 20 19 17 14 14 11 9 7 7 7 5 4 8 11 9 11 11 10 12 12 13
52 52 52 52 50 50 48 43 42 39 34 33 31 31 34 37 35 37 28 31 30 29 30 24 22 15 20 13 12 7 8 10 8 6 7 9 11 12 14 13 12 14 15 14
52 52 52 50 48 48 48 40 40 37 32 25 29 36 32 35 34 34 35 33 32 30 29 24 21 18 16 9 8 7 6 8 4 6 7 10 11 13 13 13 15 14 15 15
51 52 50 47 46 45 40 39 40 40 34 26 27 32 31 32 32 31 32 31 29 27 22 20 16 15 13 9 7 1 5 -1 3 3 5 4 9 12 13 11 11 13 12 12
51 50 47 46 45 43 38 32 37 40 39 29 22 28 26 27 29 27 25 28 26 25 19 13 12 12 12 4 -1 1 4 6 6 3 6 6 9 12 11 10 11 12 12 12
51 47 45 46 44 38 34 31 34 39 38 28 21 20 22 22 25 20 20 23 20 19 12 9 8 6 8 2 -3 1 3 4 4 6 4 4 7 4 8 9 10 12 12 13
47 46 46 45 41 37 32 32 37 38 29 24 19 16 18 19 17 15 15 15 16 12 9 9 5 5 3 -7 -3 1 2 3 3 2 3 3 4 5 5 7 8 8 9 10
46 45 42 35 33 31 30 37 33 29 27 16 11 11 11 16 12 13 13 9 6 8 3 4 5 -3 -9 -6 -5 -3 -2 -3 -2 0 1 1 1 1 3 4 4 4 5 7
43 35 32 26 30 37 35 26 22 17 13 12 6 5 8 11 9 7 8 5 3 -0 0 2 -4 -7 -3 -3 -2 -2 -2 -3 -3 -7 -4 -3 -2 -1 -1 0 2 4 5 7
32 30 27 26 32 28 22 14 15 11 9 8 5 6 6 9 5 3 3 1 2 -3 -2 -2 -9 -9 -4 -4 -6 -5 -7 -6 -6 -4 -2 -1 -1 -2 -1 -0 2 4 5 6
32 28 28 25 21 19 16 9 8 9 7 4 5 5 5 5 7 4 2 1 2 -6 2 -5 -10 -6 -4 -7 -9 -6 -7 -9 -8 -9 -7 -5 -4 -2 -1 0 2 4 5 7
29 24 19 21 14 13 11 7 5 4 5 4 4 2 3 4 5 1 1 -2 -5 2 -6 -7 -7 -5 -4 -7 -10 -8 -9 -11 -9 -8 -7 -6 -6 -4 -2 -2 2 4 5 7
24 21 13 15 9 9 9 9 7 4 4 2 2 -1 3 -0 0 -6 -2 -6 -4 -10 -13 -10 -8 -7 -9 -12 -10 -14 -10 -12 -13 -10 -10 -10 -8 -7 -2 1 2 3 4 6
17 19 12 8 5 5 4 5 4 2 3 0 -2 -2 0 -4 -5 -9 -7 -9 -9 -10 -8 -7 -5 -7 -14 -12 -9 -11 -12 -13 -12 -11 -12 -12 -11 -8 -2 1 2 4 5 6
13 10 5 7 4 2 4 4 1 3 0 0 2 -3 -3 -8 -8 -7 -8 -10 -11 -8 -10 -5 -7 -11 -14 -13 -12 -12 -13 -14 -12 -11 -11 -9 -12 -8 -3 -1 3 4 6 4
8 4 10 8 7 5 4 5 3 4 3 0 -0 -2 -6 -13 -10 -10 -14 -11 -7 -6 -5 -4 -8 -10 -8 -10 -11 -12 -10 -9 -9 -10 -9 -10 -8 -5 -4 -1 2 3 6 4
MSLP
1023.23 1022.64 1021.81 1020.95 1020.16 1019.55 1019.19 1019.25 1018.77 1018.85 1017.97 1017.95 1019.46 1020.52 1021.36 1021.27 1020.78 1020.84 1020.69 1020.69 1020.49 1020.34 1020.14 1019.65 1019.14 1018.07 1017.37 1016.98 1016.88 1016.03 1015.48 1015.00 1013.27 1013.30 1014.94 1015.40 1015.54 1015.65 1014.82 1013.06 1010.52 1009.48 1009.82 1014.38
1023.22 1022.68 1022.00 1021.31 1020.59 1020.29 1020.20 1020.13 1019.76 1019.13 1018.71 1019.42 1020.30 1021.03 1021.18 1021.21 1020.90 1020.86 1020.80 1020.57 1020.54 1020.71 1020.46 1020.30 1019.07 1018.25 1017.09 1017.22 1017.19 1016.72 1016.15 1015.21 1014.13 1013.35 1015.21 1015.74 1016.56 1016.91 1016.16 1014.59 1014.09 1013.14 1012.89 1015.79
1023.11 1022.59 1021.99 1021.37 1020.76 1020.48 1020.62 1020.60 1020.23 1019.86 1020.29 1021.06 1021.37 1021.58 1021.27 1021.08 1020.78 1020.80 1020.77 1020.49 1020.54 1020.61 1020.15 1020.12 1019.12 1018.36 1017.56 1017.42 1017.27 1017.08 1017.01 1016.58 1016.42 1016.16 1016.50 1017.56 1018.08 1018.19 1017.43 1015.58 1015.40 1015.98 1016.58 1017.43
1022.72 1022.27 1021.84 1021.37 1020.83 1020.53 1020.61 1021.11 1021.30 1021.40 1020.79 1020.69 1021.43 1021.81 1021.47 1021.01 1020.85 1020.75 1020.63 1020.31 1020.21 1020.38 1019.97 1019.42 1018.90 1018.37 1018.07 1017.46 1017.55 1017.73 1017.95 1017.39 1016.87 1016.53 1017.22 1018.13 1019.07 1019.47 1019.43 1018.53 1018.47 1018.19 1018.98 1019.35
1022.44 1022.04 1021.63 1021.23 1020.83 1020.66 1020.74 1021.20 1021.72 1022.12 1021.29 1021.20 1021.25 1021.30 1020.96 1020.88 1020.60 1020.68 1020.14 1020.15 1019.64 1019.88 1019.42 1019.05 1018.36 1018.53 1018.48 1018.08 1017.84 1017.92 1018.30 1017.50 1017.38 1017.10 1017.51 1018.23 1019.31 1020.32 1020.71 1020.86 1020.80 1020.59 1020.49 1020.74
1022.10 1021.66 1021.26 1020.94 1020.62 1020.68 1020.78 1021.39 1021.67 1021.60 1020.59 1020.72 1020.79 1020.20 1020.36 1020.20 1020.24 1019.58 1019.45 1019.35 1019.34 1018.88 1018.28 1018.13 1017.91 1017.85 1017.84 1018.21 1018.47 1018.48 1018.81 1018.50 1017.84 1017.27 1017.95 1018.39 1019.74 1021.54 1022.18 1022.88 1023.28 1022.90 1022.29 1022.69
1021.70 1021.27 1020.76 1020.36 1020.09 1020.00 1020.25 1020.66 1021.06 1021.41 1020.16 1020.14 1019.62 1019.63 1019.76 1019.63 1019.69 1019.73 1019.14 1019.10 1018.97 1017.97 1018.06 1017.64 1017.15 1017.26 1017.61 1018.25 1018.49 1018.91 1019.00 1018.96 1018.44 1017.93 1018.35 1019.41 1021.50 1022.49 1023.08 1023.71 1024.18 1024.24 1023.94 1023.53
1021.06 1020.69 1020.27 1019.89 1019.52 1019.45 1019.74 1020.16 1020.53 1020.61 1019.86 1019.19 1018.83 1019.05 1019.01 1019.13 1019.31 1019.24 1018.75 1018.33 1018.03 1018.09 1017.82 1017.18 1016.57 1016.65 1017.26 1017.62 1018.43 1019.26 1019.53 1019.22 1018.45 1018.76 1018.97 1020.76 1021.81 1023.11 1024.01 1024.33 1024.55 1024.79 1024.48 1023.92
1020.46 1020.09 1019.75 1019.37 1019.00 1019.00 1019.21 1019.35 1019.59 1019.97 1019.72 1018.07 1018.00 1018.34 1018.71 1018.91 1018.93 1018.95 1018.42 1018.07 1018.07 1018.08 1017.71 1017.44 1017.19 1016.83 1017.41 1017.78 1018.39 1019.19 1019.53 1019.56 1019.19 1019.30 1019.65 1020.53 1022.59 1023.89 1024.70 1024.96 1024.76 1025.10 1025.04 1024.61
1019.56 1019.30 1018.99 1018.69 1018.43 1018.43 1018.54 1018.47 1018.62 1018.83 1018.76 1017.84 1018.20 1018.31 1018.41 1018.87 1018.94 1018.69 1018.25 1018.14 1018.02 1018.15 1017.76 1017.47 1017.19 1017.10 1017.90 1018.32 1019.05 1019.71 1019.76 1019.86 1019.83 1020.33 1020.65 1022.06 1023.93 1024.56 1025.19 1025.62 1026.29 1025.65 1025.59 1025.21
1018.65 1018.28 1018.01 1017.76 1017.71 1017.78 1017.99 1017.72 1017.91 1018.19 1017.73 1017.31 1017.71 1018.21 1018.34 1018.48 1018.45 1018.32 1017.93 1018.10 1018.32 1018.06 1017.93 1017.78 1017.39 1017.70 1018.20 1019.27 1020.08 1020.86 1021.23 1021.35 1021.28 1022.28 1022.71 1023.68 1024.73 1025.07 1025.61 1026.54 1026.30 1026.16 1025.77 1025.54
1017.91 1017.54 1017.27 1017.00 1016.98 1017.21 1017.41 1017.40 1017.39 1017.36 1017.55 1017.56 1017.80 1017.97 1018.08 1018.08 1017.99 1018.25 1018.15 1017.88 1017.98 1017.66 1017.96 1018.24 1018.30 1018.26 1019.22 1019.61 1020.69 1022.27 1023.00 1023.54 1023.55 1024.17 1024.60 1025.46 1026.02 1026.38 1026.87 1027.02 1026.69 1026.35 1026.14 1025.71
1017.03 1016.71 1016.47 1016.23 1016.42 1016.58 1016.82 1016.91 1017.24 1017.58 1017.75 1017.64 1018.01 1018.05 1018.38 1018.46 1018.63 1018.53 1018.42 1017.89 1018.01 1018.07 1018.33 1018.67 1018.80 1019.16 1019.40 1020.32 1021.50 1023.02 1024.35 1024.87 1024.70 1025.23 1026.01 1026.12 1026.57 1026.90 1027.02 1027.09 1026.99 1026.61 1026.31 1025.99
1016.13 1015.76 1015.58 1015.63 1015.95 1016.17 1016.35 1016.92 1017.18 1017.49 1017.96 1018.21 1017.76 1017.99 1018.38 1018.74 1018.59 1018.41 1018.32 1018.23 1018.41 1018.67 1018.93 1019.17 1019.51 1020.06 1021.26 1022.28 1023.51 1024.61 1026.34 1026.39 1026.40 1026.35 1026.84 1026.80 1026.90 1027.14 1027.36 1027.29 1027.02 1026.67 1026.24 1025.91
1015.02 1014.76 1014.73 1015.10 1015.48 1015.90 1016.41 1016.78 1016.95 1016.91 1017.45 1017.64 1017.79 1018.26 1018.94 1019.14 1018.91 1018.77 1018.69 1018.76 1018.98 1019.18 1019.50 1020.10 1020.97 1022.26 1023.27 1024.60 1025.59 1027.04 1028.04 1028.52 1028.16 1027.76 1028.59 1028.62 1027.90 1027.82 1027.86 1027.58 1027.26 1026.89 1026.44 1026.03
1013.94 1013.72 1014.08 1014.57 1015.03 1015.70 1016.48 1016.97 1017.07 1016.76 1016.94 1017.47 1017.99 1018.84 1019.41 1019.70 1019.64 1019.70 1019.84 1019.80 1019.96 1020.24 1021.03 1022.31 1023.42 1024.80 1024.78 1025.84 1027.42 1029.22 1029.60 1029.89 1030.07 1029.73 1029.74 1029.49 1029.02 1028.58 1028.53 1028.15 1027.68 1027.24 1026.68 1026.33
1012.61 1013.04 1013.56 1014.03 1014.75 1015.75 1016.17 1016.56 1016.45 1016.62 1016.93 1017.64 1018.37 1019.03 1020.14 1020.37 1020.14 1020.80 1020.98 1020.97 1021.34 1021.82 1023.16 1024.29 1025.30 1026.28 1026.73 1027.88 1029.07 1030.38 1030.79 1030.88 1031.02 1030.99 1030.48 1029.74 1029.67 1029.46 1029.24 1028.71 1028.18 1027.54 1026.97 1026.55
1011.90 1012.59 1013.18 1013.86 1014.87 1015.92 1016.40 1016.91 1016.69 1016.68 1017.59 1018.49 1019.31 1020.04 1020.74 1021.55 1021.34 1022.03 1022.57 1022.22 1022.58 1023.69 1024.58 1025.81 1026.79 1027.98 1028.81 1030.04 1031.14 1031.45 1031.67 1031.55 1031.65 1031.85 1031.53 1031.19 1030.81 1030.16 1029.62 1029.18 1028.54 1027.77 1027.12 1026.69
1011.45 1012.45 1013.57 1014.75 1015.51 1015.90 1016.50 1017.12 1017.26 1017.92 1018.83 1019.65 1021.02 1021.71 1022.34 1022.88 1023.13 1023.37 1023.61 1023.97 1024.16 1025.45 1025.94 1027.09 1028.01 1029.51 1030.52 1031.68 1032.21 1032.52 1032.75 1032.82 1032.80 1032.54 1031.97 1031.56 1031.20 1030.59 1030.01 1029.49 1028.89 1028.28 1027.52 1026.92
1011.51 1012.87 1014.09 1015.07 1015.74 1015.86 1016.61 1017.56 1018.06 1019.03 1020.98 1021.74 1022.72 1023.99 1024.03 1024.33 1024.17 1024.36 1024.75 1025.01 1025.46 1026.12 1027.74 1028.48 1029.38 1030.64 1031.86 1032.69 1033.14 1033.47 1033.62 1033.62 1033.53 1033.18 1032.40 1031.90 1031.46 1031.07 1030.42 1029.91 1029.34 1028.64 1027.83 1027.08
1012.09 1012.97 1014.39 1015.89 1015.81 1016.41 1017.47 1018.63 1019.48 1020.85 1022.09 1023.24 1024.24 1024.71 1025.06 1025.72 1025.64 1025.68 1026.21 1026.17 1026.31 1026.86 1028.18 1028.91 1030.28 1031.12 1032.15 1033.11 1033.61 1033.84 1034.07 1034.11 1033.96 1033.65 1033.11 1032.60 1032.15 1031.57 1030.81 1029.92 1029.26 1028.54 1027.79 1027.04
1011.11 1012.75 1014.71 1016.02 1016.81 1017.26 1018.35 1020.10 1021.43 1021.99 1022.96 1024.29 1024.90 1025.67 1026.09 1026.50 1026.50 1026.31 1026.69 1026.57 1026.89 1027.56 1028.64 1029.54 1030.35 1031.28 1032.41 1033.29 1033.70 1033.89 1034.11 1034.20 1034.04 1033.72 1033.29 1032.69 1032.19 1031.70 1031.01 1030.17 1029.28 1028.48 1027.73 1026.97
1011.81 1013.29 1015.07 1015.91 1017.77 1018.16 1018.71 1020.33 1021.82 1022.92 1023.92 1024.97 1025.59 1026.25 1026.56 1026.97 1027.03 1027.18 1027.20 1027.29 1028.12 1028.60 1029.13 1029.68 1030.66 1031.91 1032.78 1033.41 1033.83 1034.13 1034.15 1034.23 1034.01 1033.68 1033.25 1032.70 1032.11 1031.52 1030.84 1030.01 1029.20 1028.41 1027.51 1026.81
1011.97 1013.73 1015.80 1016.42 1018.03 1018.71 1019.27 1020.34 1021.65 1023.47 1024.37 1025.37 1026.04 1026.75 1027.01 1027.44 1027.42 1028.19 1027.99 1029.07 1029.04 1029.45 1029.96 1029.88 1031.03 1032.26 1033.09 1033.50 1033.94 1034.43 1034.23 1034.16 1034.03 1033.60 1033.21 1032.69 1032.06 1031.28 1030.43 1029.70 1029.04 1028.32 1027.44 1026.68
1013.21 1014.14 1016.04 1017.76 1019.19 1020.01 1021.12 1021.99 1023.10 1024.59 1025.42 1026.00 1026.53 1027.08 1027.44 1027.94 1028.35 1029.04 1029.25 1029.63 1029.54 1029.81 1029.69 1030.48 1031.52 1032.38 1033.19 1033.54 1033.79 1033.97 1034.00 1033.92 1033.73 1033.38 1033.09 1032.52 1031.86 1031.13 1030.14 1029.31 1028.67 1027.97 1027.28 1026.64
1015.26 1016.66 1018.07 1019.27 1019.95 1021.43 1022.14 1022.93 1023.94 1025.07 1025.78 1026.29 1026.37 1026.96 1027.68 1028.75 1029.06 1029.44 1029.62 1030.01 1029.47 1029.75 1030.57 1031.11 1031.86 1032.48 1032.86 1033.15 1033.32 1033.45 1033.50 1033.53 1033.26 1032.97 1032.65 1032.19 1031.61 1030.94 1030.01 1029.07 1028.27 1027.69 1027.09 1026.64
1017.45 1018.78 1019.00 1019.73 1020.33 1021.70 1022.89 1023.71 1024.71 1025.43 1025.71 1026.05 1026.42 1027.06 1028.21 1029.54 1029.63 1029.86 1030.54 1029.87 1029.89 1030.33 1030.74 1031.21 1031.71 1032.22 1032.47 1032.64 1032.85 1032.83 1032.79 1032.68 1032.54 1032.35 1032.02 1031.64 1031.14 1030.49 1029.72 1028.78 1028.00 1027.59 1027.01 1026.63
Wind_Speed
21 23 24 24 24 22 7 3 0 6 9 6 3 3 4 5 4 2 4 4 6 6 9 9 6 6 6 12 15 10 3 6 13 9 4 5 11 11 5 5 6 5 4 6
19 20 21 22 21 13 4 2 3 2 5 5 6 3 3 4 3 4 3 4 5 3 6 7 8 7 7 9 13 9 9 1 10 2 7 4 7 17 13 8 4 6 6 6
17 19 20 20 18 11 2 2 4 2 4 2 1 4 3 4 3 5 5 7 5 5 9 7 7 9 7 17 8 11 3 4 4 10 7 4 8 15 18 5 4 4 7 6
15 17 18 19 17 8 1 3 1 2 6 2 2 2 2 4 4 3 3 4 8 3 6 11 6 6 13 11 2 4 4 5 9 11 6 6 10 12 15 15 11 6 4 6
15 16 17 17 15 4 1 1 1 1 4 3 3 2 5 3 4 4 5 7 6 7 10 11 19 16 13 10 5 4 3 5 4 3 5 7 3 15 9 9 11 7 6 4
16 15 14 14 13 1 1 1 1 1 3 3 2 2 3 5 6 6 12 10 12 15 16 12 16 17 16 14 8 4 3 5 5 3 6 4 9 10 8 5 9 7 8 10
15 16 14 13 11 5 2 3 3 3 5 4 6 4 6 11 8 12 11 12 12 5 7 16 7 4 4 5 8 6 5 3 2 4 2 4 4 4 4 5 6 9 7 11
16 16 15 14 11 3 2 3 3 3 5 6 9 4 9 9 9 9 9 9 7 5 10 5 6 3 3 3 5 5 3 3 3 4 3 2 3 4 4 3 2 10 11 13
16 16 16 14 9 4 3 3 3 3 3 5 2 7 5 5 4 5 5 5 3 2 3 2 4 5 3 2 3 4 4 1 3 1 5 4 4 4 3 3 4 11 11 13
17 16 15 14 9 9 3 3 6 2 4 3 6 5 4 4 3 5 7 2 3 1 2 4 4 5 2 4 3 3 3 2 3 3 4 3 5 6 2 4 5 11 10 12
18 18 15 15 12 9 3 2 8 5 4 4 8 7 6 4 4 5 2 4 3 2 4 3 2 4 1 4 1 2 3 3 3 1 4 5 9 4 3 5 5 9 10 10
19 18 17 13 11 9 4 3 2 5 1 2 0 1 2 6 7 5 4 3 2 2 3 3 2 5 3 3 7 3 3 3 2 2 4 3 4 8 3 3 7 9 10 11
19 19 18 12 10 8 7 4 3 1 2 3 1 4 3 4 3 2 3 2 1 3 1 2 2 6 1 6 2 5 5 4 1 5 4 4 5 2 8 4 7 10 9 10
21 20 18 9 5 5 6 3 2 2 2 3 1 3 4 2 3 3 6 6 0 1 2 3 4 6 4 3 4 3 3 4 2 3 4 2 5 8 9 9 9 9 10 10
22 20 10 7 6 8 5 2 2 1 3 2 1 3 4 6 5 5 2 2 3 1 2 3 1 2 2 3 3 3 4 3 2 3 4 5 8 8 9 11 11 11 11 11
21 12 12 12 15 16 3 2 2 1 2 2 2 3 4 8 5 9 9 5 3 2 2 3 3 4 1 3 3 4 4 4 4 3 8 9 8 9 11 12 12 12 9 10
19 16 14 16 18 4 2 1 3 5 2 2 2 2 3 6 2 3 3 5 4 3 3 3 2 4 4 2 3 4 5 6 3 7 9 1 6 8 12 12 12 12 9 8
18 16 16 15 15 12 3 5 1 5 4 3 2 2 2 8 4 2 4 2 2 5 3 3 2 3 2 3 2 4 6 7 3 8 6 6 9 9 10 9 10 11 9 10
20 20 18 6 2 3 5 12 15 7 4 3 1 1 2 6 3 2 1 2 3 2 3 3 1 1 2 3 1 3 5 4 7 9 6 5 7 9 10 11 11 10 9 10
27 6 3 3 3 11 12 5 3 5 5 4 3 0 1 4 3 2 2 2 2 2 3 3 3 2 5 3 1 1 2 3 4 4 5 9 10 10 12 11 10 10 10 10
2 3 3 2 4 3 3 3 1 1 3 2 2 3 1 4 1 1 2 1 1 2 2 2 1 3 4 2 3 1 2 3 4 4 6 5 7 9 10 11 11 10 11 9
8 9 7 3 3 3 3 2 1 1 3 3 2 2 2 2 1 1 1 1 1 2 2 1 3 3 4 2 2 3 4 4 5 3 6 6 8 8 9 10 10 10 11 10
4 5 5 3 0 3 7 8 3 3 5 3 3 3 1 2 1 2 0 2 2 0 0 3 1 3 3 4 3 4 4 4 5 5 5 6 7 8 7 9 9 11 10 8
4 5 5 4 4 1 2 3 4 3 4 4 2 3 1 1 2 1 2 2 1 1 3 4 3 4 4 3 3 2 4 5 5 6 5 7 7 9 9 8 8 9 8 9
4 3 5 3 4 6 4 5 5 3 4 3 4 4 1 2 3 3 2 1 3 4 2 1 3 3 3 4 3 4 5 5 5 4 5 6 7 8 10 9 9 8 7 7
4 5 5 6 6 3 3 3 4 3 4 2 2 3 3 2 2 3 3 3 5 1 3 2 2 3 3 4 4 5 5 5 5 5 4 6 6 7 10 11 7 7 6 7
5 4 5 4 7 5 3 2 3 4 3 2 2 3 2 3 2 2 4 4 1 3 3 3 3 4 5 4 4 5 5 5 4 3 5 5 6 7 6 7 7 8 6 6
Wind_Direction
336 340 345 349 352 354 42 358 111 350 329 38 52 23 316 312 283 259 282 276 265 270 317 301 284 276 292 343 341 330 9 290 306 339 120 89 75 4 343 296 13 347 325 89
333 335 343 348 354 22 330 20 300 355 316 37 19 329 262 248 279 270 275 266 246 326 299 301 264 275 289 339 337 339 338 345 316 311 180 126 21 5 342 252 252 36 287 95
332 332 339 345 353 13 66 356 343 57 63 71 67 335 238 286 252 266 244 271 266 277 282 234 274 289 306 327 315 338 315 275 305 300 330 353 356 6 5 343 39 5 33 46
327 328 335 340 347 360 298 10 32 29 323 17 295 239 274 287 311 237 252 248 234 277 289 298 248 254 306 305 323 21 21 276 320 300 158 103 39 14 17 33 16 37 349 35
322 325 330 335 344 355 67 298 274 175 282 246 276 173 218 271 274 235 250 236 278 259 270 258 291 300 306 283 313 353 1 300 333 283 226 238 42 26 9 23 12 35 9 76
311 318 321 327 334 135 95 129 98 224 202 195 232 217 252 267 304 262 241 261 285 281 280 280 286 280 273 261 271 299 316 322 322 332 341 225 236 10 12 64 34 337 16 336
307 310 315 319 321 336 202 172 144 199 266 219 260 256 263 278 276 263 273 275 266 260 318 296 262 231 229 226 232 238 288 296 289 300 274 266 65 31 24 103 38 14 346 345
299 302 305 309 309 179 178 154 165 209 262 251 277 243 261 265 272 273 264 263 241 322 310 287 300 220 216 183 166 175 191 266 287 297 306 39 157 29 339 340 57 5 345 348
295 296 298 299 298 182 169 191 162 164 271 224 268 282 226 270 261 273 248 258 273 247 259 265 268 301 342 273 192 176 168 107 249 235 292 286 76 355 334 211 222 7 348 345
288 290 289 290 256 225 204 221 182 167 227 236 156 220 252 176 222 261 282 273 285 191 242 253 247 271 219 262 255 202 250 323 279 260 269 110 12 320 161 241 20 341 338 337
287 286 281 286 229 225 208 235 191 192 228 251 191 185 179 200 203 255 307 282 186 232 237 245 261 248 188 238 101 234 278 254 223 171 248 236 3 159 277 7 334 332 333 333
284 284 278 254 229 223 232 250 202 224 210 321 78 196 294 238 262 249 213 267 286 274 243 219 272 253 196 234 265 156 217 300 346 313 21 86 51 87 59 280 319 333 323 326
284 284 278 246 215 238 228 254 154 111 306 280 201 201 155 103 61 303 254 198 351 225 214 169 272 261 262 251 153 122 138 18 221 184 70 334 102 111 9 358 325 323 320 320
284 285 286 208 229 251 227 184 155 100 104 268 171 122 115 83 345 219 233 269 220 338 234 264 255 265 22 63 64 74 5 318 332 124 60 115 172 15 353 340 335 331 330 324
276 280 210 175 162 136 107 107 173 210 188 255 254 133 81 22 24 43 72 201 240 199 241 246 286 59 106 89 97 84 2 20 282 61 32 309 300 346 353 339 337 335 323 330
271 239 171 169 151 136 132 186 192 157 157 190 249 73 44 12 32 57 43 30 45 57 54 87 76 18 290 135 109 90 34 22 335 333 327 292 290 307 359 332 332 323 338 324
270 172 170 167 157 139 174 193 111 155 167 191 234 176 52 348 12 59 21 25 59 52 81 68 66 40 30 72 135 54 7 349 335 14 344 281 357 326 323 323 323 323 319 323
169 164 153 150 123 121 128 8 335 114 95 30 219 134 137 7 22 24 353 35 67 44 87 74 71 57 49 98 74 17 7 352 94 356 340 294 309 316 329 328 326 331 331 333
155 136 120 88 97 165 114 104 74 59 41 130 76 178 152 359 32 6 46 353 83 17 74 78 80 54 86 144 167 24 15 4 317 320 319 335 334 330 332 329 330 326 321 322
125 109 154 161 104 121 127 40 50 33 17 25 83 250 66 344 1 77 334 7 80 95 60 93 60 102 120 144 156 250 321 339 332 330 342 341 338 332 325 317 307 305 306 310
138 126 96 64 25 83 37 87 82 131 102 37 84 43 50 24 354 49 25 105 89 127 99 246 146 195 178 170 250 244 297 281 292 277 285 297 311 311 311 310 311 312 313 314
135 109 96 89 58 85 107 52 109 271 154 128 135 91 62 95 49 159 90 107 140 114 99 138 224 169 186 197 253 290 299 322 302 291 303 303 316 313 306 300 303 306 309 309
83 72 87 153 64 164 185 179 182 165 168 159 163 133 98 148 66 83 119 96 85 65 266 253 207 134 207 225 242 283 307 310 294 312 304 307 306 309 304 299 298 306 308 309
100 144 152 207 157 118 112 97 102 95 112 134 123 100 73 42 92 345 126 66 206 148 239 230 161 190 243 261 232 261 289 304 288 296 309 307 314 310 307 300 295 302 306 314
97 136 157 130 102 65 80 90 104 80 122 128 114 93 34 50 97 21 121 97 242 233 247 155 178 232 250 260 248 254 278 288 289 300 302 302 308 308 307 311 309 303 305 322
62 65 89 109 90 98 114 103 107 128 127 121 67 112 105 89 89 166 193 156 230 169 209 223 259 252 242 247 258 259 258 267 267 287 279 300 300 301 306 305 309 320 330 337
65 49 47 61 69 97 103 99 110 133 164 122 142 134 102 116 103 217 201 216 195 186 228 249 237 254 268 269 272 261 266 273 272 286 294 290 296 293 302 317 330 327 345 327